Regional Weather Roundup
Issued by NWS Columbia, SC

Home | Current Version | Previous Version | Text Only | Print | Product List | Glossary On
Versions: 1 2 3 4 5 6 7 8 9 10 11 12 13 14 15 16 17 18 19 20 21 22 23 24 25 26 27 28 29 30 31 32 33 34 35 36 37 38 39 40 41 42 43 44 45 46 47 48 49 50
000
ASUS42 KCAE 281910
RWRCAE
REGIONAL WEATHER ROUNDUP
NATIONAL WEATHER SERVICE COLUMBIA SC
300 PM EDT FRI JUL 28 2017

NOTE: "FAIR" INDICATES FEW OR NO CLOUDS BELOW 12,000 FEET WITH NO
SIGNIFICANT WEATHER AND/OR OBSTRUCTIONS TO VISIBILITY.

NOT ALL STATIONS ARE QUALITY CONTROLLED BY THE NATIONAL
WEATHER SERVICE. USE DATA WITH CAUTION...ESPECIALLY
DEWPOINT OBSERVATIONS.

SCZ001>056-GAZ040-063>065-077-282000-
...UPSTATE SOUTH CAROLINA...

CITY           SKY/WX    TMP DP  RH WIND       PRES   REMARKS
ANDERSON       CLOUDY    81  70  69 W14       29.84F
LIBERTY        LGT RAIN  74  71  91 W9G20     29.85R
SPARTANBURG    CLOUDY    84  72  65 SW3       29.81F
CLEMSON        CLOUDY    78  71  79 W15G23    29.85S
GREENVILLE     TSTM      75  70  84 W24G40    29.87R VSB 1/4
GREENWOOD      TSTM      75  69  81 CALM      29.86R
GREER          CLOUDY    87  71  58 W15       29.81F
ROCK HILL      CLOUDY    89  70  53 SW10      29.82F
CHESTER        CLOUDY    88  70  55 CALM      29.82F
LAURENS        CLOUDY    90  72  55 W7G16     29.83R HX  96


...CENTRAL SOUTH CAROLINA...

CITY           SKY/WX    TMP DP  RH WIND       PRES   REMARKS
COLUMBIA APT   CLOUDY    93  73  52 SW8       29.80F HX 102
COLUMBIA OWENS CLOUDY    91  72  53 SW8       29.81F HX  98
MCENTIRE ANGB  CLOUDY    91  75  60 S6        29.81F HX 101
ORANGEBURG     PTSUNNY   91  74  57 SW6       29.82F HX 100
SUMTER SHAW    MOSUNNY   92  75  57 SW13      29.79F HX 103
NEWBERRY       CLOUDY    90  73  58 SW9       29.85S HX  98
AIKEN          FAIR      90  72  55 SW9       29.86F HX  96
BARNWELL       FAIR      95  75  52 W9G16     29.82F HX 107
MANNING        MOCLDY    90  79  70 NW7       29.81F HX 105
CAMDEN         FAIR      91  73  55 SW9       29.81F HX 100
LANCASTER      CLOUDY    90  72  55 SW9       29.81F HX  96
WINNSBORO      CLOUDY    90  72  55 SW9       29.82F HX  96


...EASTERN AND COASTAL SOUTH CAROLINA...

CITY           SKY/WX    TMP DP  RH WIND       PRES   REMARKS
MYRTLE BEACH   MOSUNNY   84  77  79 SW13      29.84F
N MYRTLE BCH   CLOUDY    83  77  82 S14       29.82F
CONWAY         FAIR      86  73  66 SW7       29.83F HAZE
MARION         FAIR      88  72  58 S3        29.82F
HARTSVILLE     MOCLDY    88  73  62 SW8       29.80F HX  96
FLORENCE       PTSUNNY   88  76  67 SW7       29.80F HX  99
DARLINGTON     MOSUNNY   88  78  72 SW7       29.80F HX 101
CHARLESTON APT PTSUNNY   90  75  61 SW13      29.83F HX 100
MOUNT PLEASANT FAIR      91  75  59 W9        29.83F HX 102
BEAUFORT       MOSUNNY   93  76  57 NW9       29.84F HX 105


...EASTERN GEORGIA...

CITY           SKY/WX    TMP DP  RH WIND       PRES   REMARKS
AUGUSTA BUSH F PTSUNNY   94  73  50 W9G17     29.81F HX 103
AUGUSTA DANIEL PTSUNNY   91  69  48 W8        29.84F HX  96
THOMSON        PTSUNNY   89  76  64 NW6       29.89F HX  99
WASHINGTON     HVY RAIN N/A N/A N/A SW7G30    29.85F
CLAXTON        LGT RAIN  87  80  80 CALM      29.86F HX 102
SYLVANIA       PTCLDY    92  79  65 W5        29.85F HX 109
STATESBORO     MOSUNNY   93  70  46 W10       29.85F HX  99
SAVANNAH       PTSUNNY   95  74  50 W12       29.85F HX 105


...SOUTHERN NORTH CAROLINA...

CITY           SKY/WX    TMP DP  RH WIND       PRES   REMARKS
CHARLOTTE      CLOUDY    90  75  61 SW8       29.81F HX 100
MONROE         CLOUDY    86  72  62 SW8       29.80F
ROCKINGHAM     PTCLDY    90  75  60 SW10G16   29.80F HX 100
RUTHERFORDTON  CLOUDY    74  74 100 CALM      29.85S
ASHEVILLE      LGT RAIN  77  70  79 S3        29.90F

$$



USA.gov is the U.S. government's official web portal to all federal, state and local government web resources and services.